Wahoo, NE

9:59 AM CST on January 21, 2017 (GMT -0600)
Wahoo

Weather History for KAHQ - March, 2014

Change the Weather History Date:

Saturday, March 22, 2014

  Actual Average Record
Temperature  
Mean Temperature 26 °F -  
Max Temperature 32 °F 54 °F 75 °F (2015)
Min Temperature 19 °F 28 °F 13 °F (1989)
Degree Days  
Heating Degree Days 40    
Moisture  
Dew Point 8 °F    
Average Humidity 48    
Maximum Humidity 74    
Minimum Humidity 24    
Precipitation  
Precipitation 0.00 in - - ()
Sea Level Pressure  
Sea Level Pressure 30.40 in    
Wind  
Wind Speed 15 mph (North)    
Max Wind Speed 23 mph    
Max Gust Speed 30 mph    
Visibility 10 miles    
Events      
Averages and records for this station are not official NWS values.
T = Trace of Precipitation, MM = Missing Value Source: NWS Daily Summary

Daily Weather History Graph

Daily Weather History Graph

Search for Another Location

Airport or City:

Trip Planner

Search our weather history database for the weather conditions in past years. The results will help you decide how hot, cold, wet, or windy it might be!

Date:

Astronomy

Mar. 22, 2014 Rise Set
Actual Time 7:26 AM CDT 7:40 PM CDT
Civil Twilight 6:58 AM CDT 8:08 PM CDT
Nautical Twilight 6:26 AM CDT 8:40 PM CDT
Astronomical Twilight 5:53 AM CDT 9:13 PM CDT
Moon 1:03 AM CDT (3/22) 11:07 AM CDT (3/22)
Length of Visible Light 13h 09m
Length of Day
12h 14m
Waning Gibbous, 65% of the Moon is Illuminated
Mar 22
Waning Gibbous
Mar 23
Last Quarter
Mar 30
New
Apr 7
First Quarter
Apr 15
Full

Hourly Weather History & Observations

Time (CDT) Temp. Windchill Dew Point Humidity Pressure Visibility Wind Dir Wind Speed Gust Speed Precip Events Conditions
12:15 AM 29.5 °F 19.9 °F 20.3 °F 69% 30.27 in 10.0 mi NNW 11.5 mph - N/A   Clear
12:35 AM 28.4 °F 17.0 °F 20.1 °F 71% 30.27 in 10.0 mi North 15.0 mph 23.0 mph N/A   Clear
12:55 AM 27.7 °F 16.1 °F 19.8 °F 72% 30.28 in 10.0 mi North 15.0 mph 19.6 mph N/A   Clear
1:15 AM 27.7 °F 14.5 °F 18.1 °F 67% 30.27 in 10.0 mi North 19.6 mph 24.2 mph N/A   Clear
1:35 AM 27.5 °F 13.5 °F 17.2 °F 65% 30.27 in 10.0 mi North 21.9 mph 25.3 mph N/A   Clear
1:55 AM 27.1 °F 13.4 °F 16.5 °F 64% 30.28 in 10.0 mi North 20.7 mph 25.3 mph N/A   Clear
2:15 AM 26.6 °F 12.7 °F 16.7 °F 66% 30.29 in 10.0 mi North 20.7 mph 27.6 mph N/A   Clear
2:35 AM 26.4 °F 12.8 °F 16.2 °F 65% 30.30 in 10.0 mi North 19.6 mph 27.6 mph N/A   Clear
2:55 AM 26.1 °F 14.0 °F 15.8 °F 65% 30.32 in 10.0 mi North 15.0 mph 23.0 mph N/A   Clear
3:15 AM 25.3 °F 16.0 °F 15.6 °F 67% 30.33 in 10.0 mi NNW 9.2 mph - N/A   Clear
3:35 AM 25.2 °F 11.6 °F 15.3 °F 66% 30.33 in 10.0 mi NNW 18.4 mph 23.0 mph N/A   Clear
3:55 AM 24.8 °F 9.6 °F 14.4 °F 65% 30.32 in 10.0 mi NNW 23.0 mph 26.5 mph N/A   Clear
4:15 AM 24.8 °F 10.3 °F 13.8 °F 63% 30.32 in 10.0 mi North 20.7 mph 29.9 mph N/A   Clear
4:35 AM 24.3 °F 11.2 °F 14.5 °F 67% 30.33 in 10.0 mi NNW 16.1 mph 21.9 mph N/A   Clear
4:55 AM 23.7 °F 10.1 °F 13.6 °F 65% 30.33 in 10.0 mi North 17.3 mph 24.2 mph N/A   Clear
5:15 AM 23.0 °F 11.1 °F 13.8 °F 68% 30.33 in 10.0 mi North 12.7 mph - N/A   Clear
5:35 AM 22.8 °F 9.4 °F 13.3 °F 67% 30.34 in 10.0 mi NNW 16.1 mph 20.7 mph N/A   Clear
5:55 AM 22.6 °F 9.6 °F 12.2 °F 64% 30.34 in 10.0 mi North 15.0 mph - N/A   Clear
6:15 AM 22.5 °F 8.0 °F 12.2 °F 65% 30.35 in 10.0 mi North 18.4 mph 24.2 mph N/A   Clear
6:35 AM 21.9 °F 9.2 °F 12.6 °F 67% 30.35 in 10.0 mi North 13.8 mph - N/A   Clear
6:55 AM 21.2 °F 7.8 °F 12.6 °F 69% 30.36 in 10.0 mi North 15.0 mph - N/A   Clear
7:15 AM 20.3 °F 7.2 °F 12.2 °F 71% 30.36 in 10.0 mi North 13.8 mph - N/A   Clear
7:35 AM 19.4 °F 5.0 °F 12.2 °F 74% 30.36 in 10.0 mi North 16.1 mph 19.6 mph N/A   Clear
7:55 AM 19.2 °F 5.8 °F 12.2 °F 74% 30.37 in 10.0 mi North 13.8 mph 18.4 mph N/A   Clear
8:15 AM 20.5 °F 8.0 °F 12.7 °F 72% 30.40 in 10.0 mi NNW 12.7 mph - N/A   Clear
8:35 AM 20.3 °F 7.2 °F 12.2 °F 71% 30.40 in 10.0 mi North 13.8 mph - N/A   Clear
8:55 AM 21.0 °F 6.6 °F 12.2 °F 69% 30.41 in 10.0 mi NNW 17.3 mph - N/A   Clear
9:15 AM 21.0 °F 7.1 °F 11.7 °F 67% 30.41 in 10.0 mi North 16.1 mph - N/A   Clear
9:35 AM 22.6 °F 8.7 °F 11.5 °F 62% 30.41 in 10.0 mi North 17.3 mph 23.0 mph N/A   Clear
9:55 AM 23.0 °F 8.7 °F 10.4 °F 59% 30.41 in 10.0 mi North 18.4 mph - N/A   Clear
10:15 AM 24.3 °F 10.4 °F 9.9 °F 54% 30.41 in 10.0 mi North 18.4 mph 23.0 mph N/A   Clear
10:35 AM 25.2 °F 12.4 °F 9.7 °F 52% 30.41 in 10.0 mi NNE 16.1 mph - N/A   Clear
10:55 AM 26.8 °F 14.5 °F 9.9 °F 49% 30.42 in 10.0 mi North 16.1 mph 21.9 mph N/A   Clear
11:15 AM 27.5 °F 15.0 °F 8.6 °F 45% 30.43 in 10.0 mi North 17.3 mph 23.0 mph N/A   Clear
11:35 AM 27.9 °F 17.8 °F 7.7 °F 43% 30.44 in 10.0 mi North 11.5 mph 20.7 mph N/A   Clear
11:55 AM 29.3 °F 19.1 °F 5.9 °F 37% 30.44 in 10.0 mi North 12.7 mph 23.0 mph N/A   Clear
12:15 PM 30.2 °F 18.5 °F 3.9 °F 33% 30.43 in 10.0 mi North 17.3 mph 23.0 mph N/A   Clear
12:55 PM 29.8 °F 18.4 °F 2.3 °F 31% 30.42 in 10.0 mi North 16.1 mph 20.7 mph N/A   Clear
1:15 PM 30.4 °F 20.5 °F 1.8 °F 30% 30.42 in 10.0 mi NNE 12.7 mph - N/A   Scattered Clouds
1:35 PM 30.7 °F 18.5 °F 0.9 °F 28% 30.42 in 10.0 mi North 19.6 mph 23.0 mph N/A   Scattered Clouds
1:55 PM 31.3 °F 19.9 °F 1.4 °F 28% 30.41 in 10.0 mi North 17.3 mph 23.0 mph N/A   Scattered Clouds
2:15 PM 30.7 °F 18.8 °F 0.1 °F 27% 30.41 in 10.0 mi North 18.4 mph - N/A   Mostly Cloudy
2:35 PM 30.4 °F 19.1 °F -0.4 °F 27% 30.41 in 10.0 mi North 16.1 mph 23.0 mph N/A   Overcast
2:55 PM 30.9 °F 19.4 °F 0.3 °F 27% 30.41 in 10.0 mi North 17.3 mph 20.7 mph N/A   Overcast
3:15 PM 30.9 °F 19.8 °F 1.6 °F 29% 30.41 in 10.0 mi North 16.1 mph 20.7 mph N/A   Overcast
3:35 PM 31.1 °F 20.9 °F 1.9 °F 29% 30.40 in 10.0 mi North 13.8 mph - N/A   Overcast
3:55 PM 31.1 °F 19.7 °F 1.0 °F 28% 30.39 in 10.0 mi North 17.3 mph 23.0 mph N/A   Overcast
4:15 PM 31.6 °F 20.7 °F 2.1 °F 29% 30.39 in 10.0 mi NNE 16.1 mph 23.0 mph N/A   Overcast
4:35 PM 31.6 °F 21.6 °F 2.5 °F 29% 30.41 in 10.0 mi North 13.8 mph 24.2 mph N/A   Overcast
4:55 PM 32.0 °F 22.1 °F 3.2 °F 30% 30.41 in 10.0 mi North 13.8 mph - N/A   Overcast
5:15 PM 31.5 °F 21.8 °F 1.2 °F 28% 30.41 in 10.0 mi North 12.7 mph 21.9 mph N/A   Overcast
5:35 PM 31.5 °F 20.5 °F 0.1 °F 26% 30.42 in 10.0 mi North 16.1 mph 19.6 mph N/A   Overcast
5:55 PM 30.9 °F 19.8 °F -1.1 °F 25% 30.42 in 10.0 mi North 16.1 mph - N/A   Overcast
6:15 PM 30.4 °F 22.2 °F -2.6 °F 24% 30.42 in 10.0 mi NNE 9.2 mph 15.0 mph N/A   Overcast
6:35 PM 30.2 °F 18.9 °F -0.0 °F 27% 30.43 in 10.0 mi North 16.1 mph - N/A   Overcast
6:55 PM 29.5 °F 20.4 °F 1.2 °F 30% 30.43 in 10.0 mi North 10.4 mph - N/A   Overcast
7:15 PM 29.1 °F 17.5 °F 1.2 °F 30% 30.43 in 10.0 mi North 16.1 mph - N/A   Overcast
7:35 PM 28.4 °F 16.6 °F 1.9 °F 32% 30.43 in 10.0 mi North 16.1 mph - N/A   Overcast
7:55 PM 27.7 °F 15.6 °F 3.9 °F 36% 30.44 in 10.0 mi North 16.1 mph - N/A   Overcast
8:15 PM 27.5 °F 16.3 °F 4.6 °F 38% 30.45 in 10.0 mi North 13.8 mph - N/A   Overcast
8:35 PM 27.5 °F 19.3 °F 3.9 °F 37% 30.45 in 10.0 mi North 8.1 mph - N/A   Overcast
8:55 PM 27.5 °F 18.0 °F 3.2 °F 35% 30.46 in 10.0 mi North 10.4 mph - N/A   Overcast
9:15 PM 27.5 °F 18.6 °F 3.2 °F 35% 30.47 in 10.0 mi North 9.2 mph - N/A   Overcast
9:35 PM 27.3 °F 19.9 °F 3.4 °F 36% 30.48 in 10.0 mi North 6.9 mph - N/A   Overcast
9:55 PM 27.3 °F 19.1 °F 3.9 °F 37% 30.48 in 10.0 mi North 8.1 mph - N/A   Overcast
10:15 PM 27.3 °F 17.7 °F 4.3 °F 37% 30.50 in 10.0 mi North 10.4 mph - N/A   Overcast
10:35 PM 27.1 °F 17.5 °F 3.9 °F 37% 30.50 in 10.0 mi North 10.4 mph - N/A   Overcast
10:55 PM 26.6 °F 15.2 °F 3.7 °F 38% 30.50 in 10.0 mi North 13.8 mph - N/A   Overcast
11:15 PM 25.7 °F 16.4 °F 4.6 °F 41% 30.51 in 10.0 mi North 9.2 mph - N/A   Scattered Clouds
11:35 PM 24.8 °F 15.3 °F 4.8 °F 43% 30.51 in 10.0 mi North 9.2 mph - N/A   Clear
11:55 PM 23.5 °F 16.4 °F 4.8 °F 45% 30.52 in 10.0 mi NNW 5.8 mph - N/A   Clear